This is the latest recevied weather packets stored in our database for station/object KJ4EWA. If no packets are shown the sender has not sent any weather packets the latest 10 day(s).
| Time | Temp. | Humidity | Pressure | Rain* | Wind** | Luminosity | Snow |
|---|---|---|---|---|---|---|---|
| 1778103258 | 25° C | 95% | 1016.6 hPa | 0 mm | - | 61 W/m² | - |
| 1778102955 | 25.56° C | 95% | 1016.6 hPa | 0 mm | - | 55 W/m² | - |
| 1778102651 | 25.56° C | 94% | 1016.7 hPa | 0 mm | - | 88 W/m² | - |
| 1778102346 | 25.56° C | 94% | 1016.5 hPa | 0 mm | - | 130 W/m² | - |
| 1778102042 | 25.56° C | 94% | 1016.7 hPa | 0 mm | - | 125 W/m² | - |
| 1778101739 | 25.56° C | 94% | 1016.9 hPa | 0 mm | - | 217 W/m² | - |
| 1778101436 | 25.56° C | 94% | 1016.8 hPa | 0 mm | - | 124 W/m² | - |
| 1778101134 | 25.56° C | 95% | 1017 hPa | 0 mm | - | 103 W/m² | - |
| 1778100829 | 25.56° C | 94% | 1017.1 hPa | 0 mm | - | 99 W/m² | - |
| 1778100526 | 25.56° C | 94% | 1016.8 hPa | 0 mm | - | 114 W/m² | - |
| 1778100224 | 25.56° C | 94% | 1017.1 hPa | 0 mm | - | 150 W/m² | - |
| 1778099921 | 25.56° C | 95% | 1017.3 hPa | 0 mm | - | 143 W/m² | - |
| 1778099618 | 25° C | 94% | 1016.7 hPa | 0 mm | - | 119 W/m² | - |
| 1778099315 | 25.56° C | 94% | 1017 hPa | 0 mm | - | 125 W/m² | - |
| 1778099012 | 25.56° C | 93% | 1017.6 hPa | 0 mm | - | 135 W/m² | - |
| 1778098708 | 25.56° C | 94% | 1017.2 hPa | 0 mm | - | 122 W/m² | - |
| 1778098406 | 25.56° C | 94% | 1017.4 hPa | 0 mm | - | 137 W/m² | - |
| 1778098103 | 25.56° C | 94% | 1017.2 hPa | 0 mm | - | 49 W/m² | - |
| 1778097799 | 25.56° C | 94% | 1017.4 hPa | 0 mm | - | 33 W/m² | - |
| 1778097495 | 25.56° C | 94% | 1017.5 hPa | 0 mm | - | 23 W/m² | - |
| 1778097192 | 25.56° C | 93% | 1017.7 hPa | 0 mm | - | 32 W/m² | - |
| 1778096889 | 25.56° C | 93% | 1017.9 hPa | 0 mm | - | 34 W/m² | - |
| 1778096585 | 26.11° C | 93% | 1017.5 hPa | 0 mm | - | 44 W/m² | - |
| 1778096283 | 26.11° C | 93% | 1017.5 hPa | 0 mm | - | 49 W/m² | - |
| 1778095980 | 26.11° C | 92% | 1017.7 hPa | 0 mm | - | 69 W/m² | - |
* Rain latest hour (hover to see other rain measurements)
** Current wind speed in m/s (hover to see current wind gust speed)